| time (UTC) | temp F | wind direction | speed MPH | gust MPH | rain 1hr in | rain 24hr in | rain mn in | humidity % | barometer mb |
| 20260904050004 | 75 | 0.0 | 0.0 | 0.00 | 0.00 | 0.00 | 80 | 1015.6 | |
| 20260904044506 | 76 | 0.0 | 0.0 | 0.00 | 0.00 | 0.00 | 79 | 1015.7 | |
| 20260904043002 | 76 | 0.0 | 0.0 | 0.00 | 0.00 | 0.00 | 78 | 1015.6 | |
| 20260904041602 | 76 | 0.0 | 0.0 | 0.00 | 0.00 | 0.00 | 77 | 1015.7 | |
| 20260904040057 | 77 | 0.0 | 0.0 | 0.00 | 0.00 | 0.00 | 77 | 1015.7 | |
| 20260904034555 | 77 | 0.0 | 0.0 | 0.00 | 0.00 | 0.00 | 76 | 1015.6 | |
| 20260904033055 | 77 | 0.0 | 0.0 | 0.00 | 0.00 | 0.00 | 75 | 1015.7 | |
| 20260904031556 | 77 | 0.0 | 0.0 | 0.00 | 0.00 | 0.00 | 74 | 1015.7 | |
| 20260904030106 | 78 | 0.0 | 0.0 | 0.00 | 0.00 | 0.00 | 74 | 1015.6 | |
| 20260904024554 | 78 | 0.0 | 0.0 | 0.00 | 0.00 | 0.00 | 73 | 1015.6 | |
| 20260904023054 | 78 | 0.0 | 0.0 | 0.00 | 0.00 | 0.00 | 72 | 1015.6 | |
| 20260904021554 | 79 | 0.0 | 0.0 | 0.00 | 0.00 | 0.00 | 70 | 1015.5 | |
| 20260904020052 | 79 | 0.0 | 0.0 | 0.00 | 0.00 | 0.00 | 70 | 1015.4 | |
| 20260904014605 | 80 | 0.0 | 0.0 | 0.00 | 0.00 | 0.00 | 69 | 1015.3 | |
| 20260904013051 | 80 | 0.0 | 0.0 | 0.00 | 0.00 | 0.00 | 67 | 1015.5 | |
| 20260904011552 | 81 | 0.0 | 0.0 | 0.00 | 0.00 | 0.00 | 66 | 1015.4 | |
| 20260904010051 | 81 | 0.0 | 0.0 | 0.00 | 0.00 | 0.00 | 65 | 1015.5 | |
| 20260904004550 | 81 | 0.0 | 0.0 | 0.00 | 0.00 | 0.00 | 64 | 1015.5 | |
| 20260904003050 | 82 | 0.0 | 0.0 | 0.00 | 0.00 | 0.00 | 63 | 1015.2 | |
| 20260904001550 | 82 | 0.0 | 0.0 | 0.00 | 0.00 | 0.00 | 61 | 1014.8 | |
| 20260904000050 | 83 | 0.0 | 0.0 | 0.00 | 0.00 | 0.00 | 59 | 1014.7 | |
| 20260903234548 | 84 | 0.0 | 0.0 | 0.00 | 0.00 | 0.00 | 57 | 1014.4 | |
| 20260903233050 | 85 | 0.0 | 0.0 | 0.00 | 0.00 | 0.00 | 55 | 1014.1 | |
| 20260903231547 | 86 | 0.0 | 0.0 | 0.00 | 0.00 | 0.00 | 53 | 1014.2 | |
| 20260903230050 | 87 | 0.0 | 0.0 | 0.00 | 0.00 | 0.00 | 51 | 1013.9 | |
| 20260903224546 | 88 | 0.0 | 0.0 | 0.00 | 0.00 | 0.00 | 51 | 1013.7 | |
| 20260903223045 | 89 | 0.0 | 0.0 | 0.00 | 0.00 | 0.00 | 51 | 1013.9 | |
| 20260903221544 | 89 | 0.0 | 0.0 | 0.00 | 0.00 | 0.00 | 50 | 1013.8 | |
| 20260903220047 | 90 | 0.0 | 0.0 | 0.00 | 0.00 | 0.00 | 50 | 1014.0 | |
| 20260903214544 | 90 | 0.0 | 0.0 | 0.00 | 0.00 | 0.00 | 50 | 1014.1 | |
| 20260903213041 | 90 | 0.0 | 0.0 | 0.00 | 0.00 | 0.00 | 52 | 1014.1 | |
| 20260903211540 | 90 | 0.0 | 0.0 | 0.00 | 0.00 | 0.00 | 52 | 1014.2 | |
| 20260903210043 | 90 | 0.0 | 0.0 | 0.00 | 0.00 | 0.00 | 51 | 1014.4 | |
| 20260903204535 | 90 | 0.0 | 0.0 | 0.00 | 0.00 | 0.00 | 49 | 1014.5 | |
| 20260903203033 | 90 | 0.0 | 0.0 | 0.00 | 0.00 | 0.00 | 50 | 1014.5 | |
| 20260903201533 | 90 | 0.0 | 0.0 | 0.00 | 0.00 | 0.00 | 49 | 1014.9 | |
| 20260903200030 | 90 | 0.0 | 0.0 | 0.00 | 0.00 | 0.00 | 48 | 1015.0 | |
| 20260903194528 | 90 | 0.0 | 0.0 | 0.00 | 0.00 | 0.00 | 51 | 1015.1 | |
| 20260903193027 | 91 | 0.0 | 0.0 | 0.00 | 0.00 | 0.00 | 48 | 1015.2 | |
| 20260903191536 | 91 | 0.0 | 0.0 | 0.00 | 0.00 | 0.00 | 49 | 1015.3 | |
| 20260903190025 | 90 | 0.0 | 0.0 | 0.00 | 0.00 | 0.00 | 49 | 1015.4 | |
| 20260903184531 | 91 | 0.0 | 0.0 | 0.00 | 0.00 | 0.00 | 48 | 1015.7 | |
| 20260903183022 | 92 | 0.0 | 0.0 | 0.00 | 0.00 | 0.00 | 46 | 1015.9 | |
| 20260903181522 | 93 | 0.0 | 0.0 | 0.00 | 0.00 | 0.00 | 48 | 1015.7 | |
| 20260903180020 | 95 | 0.0 | 0.0 | 0.00 | 0.00 | 0.00 | 43 | 1016.0 | |
| 20260903174517 | 96 | 0.0 | 0.0 | 0.00 | 0.00 | 0.00 | 44 | 1016.1 | |
| 20260903173020 | 96 | 0.0 | 0.0 | 0.00 | 0.00 | 0.00 | 45 | 1016.2 | |
| 20260903171516 | 97 | 0.0 | 0.0 | 0.00 | 0.00 | 0.00 | 45 | 1016.2 | |
| 20260903170015 | 98 | 0.0 | 0.0 | 0.00 | 0.00 | 0.00 | 43 | 1016.3 | |
| 20260903164511 | 96 | 0.0 | 0.0 | 0.00 | 0.00 | 0.00 | 44 | 1016.4 | |
| 20260903163008 | 95 | 0.0 | 0.0 | 0.00 | 0.00 | 0.00 | 48 | 1016.6 | |
| 20260903161507 | 95 | 0.0 | 0.0 | 0.00 | 0.00 | 0.00 | 47 | 1016.7 | |
| 20260903160011 | 94 | 0.0 | 0.0 | 0.00 | 0.00 | 0.00 | 49 | 1016.9 | |
| 20260903154506 | 94 | 0.0 | 0.0 | 0.00 | 0.00 | 0.00 | 48 | 1017.0 | |
| 20260903153005 | 93 | 0.0 | 0.0 | 0.00 | 0.00 | 0.00 | 51 | 1017.1 | |
| 20260903151505 | 94 | 0.0 | 0.0 | 0.00 | 0.00 | 0.00 | 51 | 1017.2 | |
| 20260903150002 | 95 | 0.0 | 0.0 | 0.00 | 0.00 | 0.00 | 54 | 1017.1 | |
| 20260903144558 | 94 | 0.0 | 0.0 | 0.00 | 0.00 | 0.00 | 55 | 1017.2 | |
| 20260903143107 | 91 | 0.0 | 0.0 | 0.00 | 0.00 | 0.00 | 59 | 1017.1 | |
| 20260903141553 | 90 | 0.0 | 0.0 | 0.00 | 0.00 | 0.00 | 58 | 1017.1 | |
| 20260903140050 | 89 | 0.0 | 0.0 | 0.00 | 0.00 | 0.00 | 62 | 1017.1 | |
| 20260903134545 | 87 | 0.0 | 0.0 | 0.00 | 0.00 | 0.00 | 65 | 1017.2 | |
| 20260903133041 | 84 | 0.0 | 0.0 | 0.00 | 0.00 | 0.00 | 69 | 1017.3 | |
| 20260903131540 | 80 | 0.0 | 0.0 | 0.00 | 0.00 | 0.00 | 75 | 1017.5 | |
| 20260903130033 | 78 | 0.0 | 0.0 | 0.00 | 0.00 | 0.00 | 79 | 1017.6 | |
| 20260903124534 | 76 | 0.0 | 0.0 | 0.00 | 0.00 | 0.00 | 82 | 1017.6 | |
| 20260903123037 | 73 | 0.0 | 0.0 | 0.00 | 0.00 | 0.00 | 88 | 1017.6 | |
| 20260903121532 | 70 | 0.0 | 0.0 | 0.00 | 0.00 | 0.00 | 91 | 1017.6 | |
| 20260903120023 | 69 | 0.0 | 0.0 | 0.00 | 0.00 | 0.00 | 91 | 1017.6 | |
| 20260903114524 | 69 | 0.0 | 0.0 | 0.00 | 0.00 | 0.00 | 91 | 1017.5 | |
| 20260903113033 | 69 | 0.0 | 0.0 | 0.00 | 0.00 | 0.00 | 91 | 1017.3 | |
| 20260903111520 | 68 | 0.0 | 0.0 | 0.00 | 0.00 | 0.00 | 91 | 1017.1 | |
| 20260903110016 | 68 | 0.0 | 0.0 | 0.00 | 0.00 | 0.00 | 91 | 1017.0 | |
| 20260903104515 | 68 | 0.0 | 0.0 | 0.00 | 0.00 | 0.00 | 90 | 1016.9 | |
| 20260903103013 | 68 | 0.0 | 0.0 | 0.00 | 0.00 | 0.00 | 91 | 1016.6 | |
| 20260903101512 | 69 | 0.0 | 0.0 | 0.00 | 0.00 | 0.00 | 91 | 1016.6 | |
| 20260903100014 | 69 | 0.0 | 0.0 | 0.00 | 0.00 | 0.00 | 90 | 1016.5 | |
| 20260903094509 | 69 | 0.0 | 0.0 | 0.00 | 0.00 | 0.00 | 88 | 1016.5 | |
| 20260903093011 | 70 | 0.0 | 0.0 | 0.00 | 0.00 | 0.00 | 87 | 1016.6 | |
| 20260903091515 | 70 | 0.0 | 0.0 | 0.00 | 0.00 | 0.00 | 86 | 1016.5 | |
| 20260903090003 | 71 | 0.0 | 0.0 | 0.00 | 0.00 | 0.00 | 85 | 1016.3 | |
| 20260903084601 | 72 | 0.0 | 0.0 | 0.00 | 0.00 | 0.00 | 84 | 1016.3 | |
| 20260903083059 | 72 | 0.0 | 0.0 | 0.00 | 0.00 | 0.00 | 83 | 1016.2 | |
| 20260903081559 | 73 | 0.0 | 0.0 | 0.00 | 0.00 | 0.00 | 82 | 1016.3 | |
| 20260903080105 | 73 | 0.0 | 0.0 | 0.00 | 0.00 | 0.00 | 80 | 1016.3 | |
| 20260903074558 | 73 | 0.0 | 0.0 | 0.00 | 0.00 | 0.00 | 82 | 1016.3 | |
| 20260903073057 | 73 | 0.0 | 0.0 | 0.00 | 0.00 | 0.00 | 82 | 1016.3 | |
| 20260903071558 | 72 | 0.0 | 0.0 | 0.00 | 0.00 | 0.00 | 83 | 1016.2 | |
| 20260903070056 | 72 | 0.0 | 0.0 | 0.00 | 0.00 | 0.00 | 84 | 1016.3 | |
| 20260903064556 | 72 | 0.0 | 0.0 | 0.00 | 0.00 | 0.00 | 83 | 1016.3 | |
| 20260903063055 | 72 | 0.0 | 0.0 | 0.00 | 0.00 | 0.00 | 84 | 1016.2 | |
| 20260903061559 | 72 | 0.0 | 0.0 | 0.00 | 0.00 | 0.00 | 84 | 1016.2 | |
| 20260903060053 | 72 | 0.0 | 0.0 | 0.00 | 0.00 | 0.00 | 82 | 1016.3 | |
| 20260903054551 | 73 | 0.0 | 0.0 | 0.00 | 0.00 | 0.00 | 81 | 1016.3 | |
| 20260903053050 | 73 | 0.0 | 0.0 | 0.00 | 0.00 | 0.00 | 81 | 1016.2 | |
| 20260903051549 | 73 | 0.0 | 0.0 | 0.00 | 0.00 | 0.00 | 81 | 1016.2 |